Barrow, AK

12:02 AM AKST on February 10, 2016 (GMT -0900)
Nuiqsut

Weather History for PAQT - February, 2013

Change the Weather History Date:

Sunday, February 3, 2013

  Actual Average (PAKU) Record (PAKU)
Temperature  
Mean Temperature -16 °F -  
Max Temperature -11 °F -12 °F 21 °F (1989)
Min Temperature -20 °F -20 °F -50 °F (1991)
Degree Days  
Heating Degree Days 80    
Moisture  
Dew Point -16 °F    
Average Humidity 82    
Maximum Humidity 84    
Minimum Humidity 77    
Precipitation  
Precipitation 0.00 in - - ()
Sea Level Pressure  
Sea Level Pressure 29.92 in    
Wind  
Wind Speed 18 mph (NE)    
Max Wind Speed 23 mph    
Max Gust Speed 30 mph    
Visibility 3 miles    
Events      
Averages and records for this station are not official NWS values.
T = Trace of Precipitation, MM = Missing Value Source: NWS Daily Summary

Daily Weather History Graph

Daily Weather History Graph

Search for Another Location

Airport or City:

Trip Planner

Search our weather history database for the weather conditions in past years. The results will help you decide how hot, cold, wet, or windy it might be!

Date:

Astronomy

Feb. 03, 2013 Rise Set
Actual Time 10:38 AM AKST 3:58 PM AKST
Civil Twilight 9:15 AM AKST 5:21 PM AKST
Nautical Twilight 7:58 AM AKST 6:39 PM AKST
Astronomical Twilight 6:46 AM AKST 7:51 PM AKST
Moon 4:51 AM AKST (2/3) 9:01 AM AKST (2/3)
Length of Visible Light 8h 05m
Length of Day
5h 20m
Waning Gibbous, 47% of the Moon is Illuminated
Feb 3
Waning Gibbous
Feb 9
New
Feb 17
First Quarter
Feb 25
Full
Mar 4
Last Quarter

Hourly Weather History & Observations

Time (AKST) Temp. Windchill Dew Point Humidity Pressure Visibility Wind Dir Wind Speed Gust Speed Precip Events Conditions
12:03 AM -14.8 °F -35.6 °F -18.4 °F 84% 29.94 in 2.5 mi NE 11.5 mph - N/A   Overcast
12:21 AM -14.8 °F -34.6 °F -18.4 °F 84% 29.94 in 4.0 mi NE 10.4 mph - N/A   Overcast
12:44 AM -14.8 °F - -18.4 °F 84% 29.93 in - North - - N/A   Unknown
12:53 AM -15.0 °F -38.5 °F -18.9 °F 82% 29.94 in 7.0 mi NE 15.0 mph - N/A   Unknown
1:53 AM -14.1 °F -38.9 °F -18.0 °F 82% 29.93 in 8.0 mi NE 17.3 mph - N/A   Clear
3:53 AM -11.9 °F -36.8 °F -16.1 °F 82% 29.91 in 4.0 mi NE 18.4 mph 155.4 mph N/A   Mist
4:53 AM -11.0 °F -34.9 °F -15.0 °F 83% 29.91 in 3.0 mi NE 17.3 mph - N/A   Partly Cloudy
5:00 AM -11.2 °F -35.8 °F -14.8 °F 84% 29.90 in 2.5 mi NE 18.4 mph - N/A   Scattered Clouds
5:08 AM -11.2 °F -36.4 °F -14.8 °F 84% 29.90 in 4.0 mi NE 19.6 mph - N/A   Scattered Clouds
5:19 AM -11.2 °F -36.4 °F -14.8 °F 84% 29.90 in 2.0 mi NE 19.6 mph - N/A   Scattered Clouds
5:40 AM -11.2 °F -33.7 °F -14.8 °F 84% 29.90 in 2.5 mi NE 15.0 mph - N/A   Mostly Cloudy
5:49 AM -11.2 °F -35.8 °F -14.8 °F 84% 29.90 in 3.0 mi NE 18.4 mph - N/A   Mostly Cloudy
5:53 AM -11.0 °F -35.6 °F -15.0 °F 83% 29.90 in 3.0 mi NE 18.4 mph - N/A   Overcast
6:17 AM -11.2 °F -37.0 °F -14.8 °F 84% 29.89 in 2.5 mi NE 20.7 mph - N/A   Overcast
6:33 AM -11.2 °F -35.8 °F -14.8 °F 84% 29.90 in 2.5 mi NE 18.4 mph - N/A   Overcast
6:41 AM -11.2 °F -35.2 °F -14.8 °F 84% 29.89 in 4.0 mi NE 17.3 mph - N/A   Overcast
6:53 AM -11.0 °F -35.6 °F -15.0 °F 83% 29.90 in 3.0 mi NE 18.4 mph - N/A   Overcast
7:00 AM -11.2 °F -37.0 °F -14.8 °F 84% 29.89 in 2.5 mi NE 20.7 mph - N/A   Overcast
7:11 AM -11.2 °F -37.6 °F -14.8 °F 84% 29.89 in 3.0 mi NE 21.9 mph 28.8 mph N/A   Mostly Cloudy
7:20 AM -11.2 °F -37.0 °F -14.8 °F 84% 29.89 in 2.5 mi NE 20.7 mph - N/A   Mostly Cloudy
7:36 AM -11.2 °F -37.6 °F -14.8 °F 84% 29.89 in 1.8 mi NE 21.9 mph 28.8 mph N/A   Mostly Cloudy
7:42 AM -11.2 °F -37.6 °F -14.8 °F 84% 29.89 in 3.0 mi NE 21.9 mph - N/A   Mostly Cloudy
7:53 AM -11.0 °F -36.2 °F -15.0 °F 83% 29.89 in 3.0 mi NE 19.6 mph - N/A   Overcast
8:25 AM -11.2 °F -37.0 °F -14.8 °F 84% 29.89 in 2.0 mi NE 20.7 mph - N/A   Partly Cloudy
8:37 AM -11.2 °F -37.6 °F -14.8 °F 84% 29.89 in 3.0 mi NE 21.9 mph - N/A   Clear
8:48 AM -11.2 °F -38.2 °F -14.8 °F 84% 29.89 in 2.0 mi NE 23.0 mph 29.9 mph N/A   Clear
8:53 AM -11.0 °F -36.8 °F -15.0 °F 83% 29.89 in 2.5 mi NE 20.7 mph 29.9 mph N/A   Partly Cloudy
9:02 AM -11.2 °F -36.4 °F -14.8 °F 84% 29.89 in 5.0 mi NE 19.6 mph - N/A   Partly Cloudy
9:09 AM -11.2 °F -36.4 °F -14.8 °F 84% 29.89 in 4.0 mi NE 19.6 mph - N/A   Mostly Cloudy
9:53 AM -11.0 °F -36.8 °F -15.0 °F 83% 29.91 in 2.5 mi NE 20.7 mph - N/A   Overcast
10:06 AM -11.2 °F -35.8 °F -14.8 °F 84% 29.90 in 3.0 mi NE 18.4 mph 26.5 mph N/A   Overcast
10:16 AM -11.2 °F -37.0 °F -14.8 °F 84% 29.91 in 2.5 mi ENE 20.7 mph 26.5 mph N/A   Overcast
10:33 AM -11.2 °F -35.2 °F -14.8 °F 84% 29.90 in 4.0 mi ENE 17.3 mph - N/A   Overcast
10:46 AM -11.2 °F -37.0 °F -14.8 °F 84% 29.91 in 2.0 mi NE 20.7 mph - N/A   Overcast
10:53 AM -11.0 °F -36.2 °F -15.0 °F 83% 29.91 in 1.5 mi NE 19.6 mph - N/A   Overcast
11:53 AM -11.0 °F -36.2 °F -15.0 °F 83% 29.92 in 2.5 mi NE 19.6 mph 27.6 mph N/A   Overcast
12:05 PM -11.2 °F -38.2 °F -16.6 °F 77% 29.91 in 1.5 mi NE 23.0 mph 28.8 mph N/A   Haze
12:25 PM -11.2 °F -36.4 °F -14.8 °F 84% 29.91 in 2.0 mi NE 19.6 mph - N/A   Overcast
12:50 PM -11.2 °F -36.4 °F -14.8 °F 84% 29.91 in 1.8 mi NE 19.6 mph 27.6 mph N/A   Overcast
12:53 PM -11.0 °F -35.6 °F -15.0 °F 83% 29.92 in 2.5 mi NE 18.4 mph - N/A   Overcast
1:17 PM -11.2 °F -37.0 °F -14.8 °F 84% 29.92 in 4.0 mi NE 20.7 mph 26.5 mph N/A   Mostly Cloudy
1:27 PM -11.2 °F -35.8 °F -14.8 °F 84% 29.92 in 2.0 mi NE 18.4 mph 27.6 mph N/A   Scattered Clouds
1:39 PM -11.2 °F -35.8 °F -16.6 °F 77% 29.92 in 4.0 mi NE 18.4 mph - N/A   Haze
1:53 PM -11.0 °F -35.6 °F -16.1 °F 78% 29.93 in 3.0 mi NE 18.4 mph - N/A   Haze
2:28 PM -11.2 °F -38.2 °F -16.6 °F 77% 29.93 in 2.5 mi NE 23.0 mph - N/A   Mostly Cloudy
2:49 PM -11.2 °F -37.6 °F -16.6 °F 77% 29.93 in 1.8 mi NE 21.9 mph - N/A   Overcast
2:53 PM -11.9 °F -38.0 °F -16.1 °F 82% 29.94 in 1.5 mi NE 20.7 mph - N/A   Overcast
3:29 PM -11.2 °F -35.8 °F -16.6 °F 77% 29.94 in 2.0 mi NE 18.4 mph - N/A   Haze
3:43 PM -11.2 °F -37.0 °F -16.6 °F 77% 29.94 in 1.8 mi NE 20.7 mph - N/A   Haze
3:51 PM -13.0 °F -39.4 °F -16.6 °F 84% 29.94 in 2.5 mi NE 20.7 mph - N/A   Overcast
3:53 PM -13.0 °F -38.8 °F -17.0 °F 82% 29.94 in 2.5 mi NE 19.6 mph - N/A   Mostly Cloudy
4:29 PM -13.0 °F -38.2 °F -16.6 °F 84% 29.94 in 3.0 mi NE 18.4 mph - N/A   Mostly Cloudy
4:53 PM -14.1 °F -40.2 °F -18.0 °F 82% 29.94 in 4.0 mi NE 19.6 mph - N/A   Mostly Cloudy
5:53 PM -15.0 °F -40.0 °F -20.0 °F 78% 29.96 in 6.0 mi NE 17.3 mph - N/A   Haze
6:53 PM -16.1 °F - -20.9 °F 79% 29.98 in 6.0 mi North - - N/A   Haze
7:53 PM -16.1 °F - -20.0 °F 82% 29.99 in 4.0 mi North - - N/A   Partly Cloudy
8:53 PM -17.0 °F - -20.9 °F 82% 30.00 in 4.0 mi North - - N/A   Clear
9:53 PM -18.9 °F - -23.1 °F 81% 30.02 in 6.0 mi North - - N/A   Clear
10:53 PM -20.0 °F - -24.0 °F 82% 30.04 in 7.0 mi North - - N/A   Clear
11:53 PM -20.0 °F - -25.1 °F 78% 30.05 in 7.0 mi North - - N/A   Clear